GW2005 Weather Reports


Display with metric or nautical units.
time (UTC)temp
F
wind
direction
speed
MPH
gust
MPH
rain 1hr
in
rain 24hr
in
rain mn
in
humidity
%
barometer
mb
20260505035417 57 197 0.0 2.0 0.00 0.00 0.00 81 1011.3
20260505034915 58 197 0.0 2.0 0.00 0.00 0.00 81 1011.4
20260505034416 58 208 0.0 2.0 0.00 0.00 0.00 80 1011.4
20260505033916 58 237 0.0 0.0 0.00 0.00 0.00 80 1011.5
20260505033416 58 237 0.0 0.0 0.00 0.00 0.00 80 1011.4
20260505033147 59 237 0.0 0.0 0.00 0.00 0.00 79 1011.4
20260505032416 59 237 0.0 0.0 0.00 0.00 0.00 78 1011.4
20260505031909 60 237 0.0 0.0 0.00 0.00 0.00 77 1011.4
20260505031410 60 237 0.0 0.0 0.00 0.00 0.00 77 1011.4
20260505030907 60 237 0.0 0.0 0.00 0.00 0.00 77 1011.6
20260505030407 60 237 0.0 0.0 0.00 0.00 0.00 76 1011.4
20260505025906 61 237 0.0 0.0 0.00 0.00 0.00 75 1011.5
20260505025404 61 237 0.0 2.0 0.00 0.00 0.00 74 1011.5
20260505024903 62 237 1.0 3.0 0.00 0.00 0.00 74 1011.6
20260505024404 62 239 1.0 3.0 0.00 0.00 0.00 74 1011.8
20260505023904 62 224 0.0 3.0 0.00 0.00 0.00 73 1011.8
20260505023403 62 238 0.0 0.0 0.00 0.00 0.00 73 1011.8
20260505022904 62 238 0.0 0.0 0.00 0.00 0.00 73 1011.8
20260505022402 62 238 0.0 0.0 0.00 0.00 0.00 72 1011.7
20260505021901 62 238 0.0 0.0 0.00 0.00 0.00 72 1011.6
20260505021401 63 238 0.0 0.0 0.00 0.00 0.00 71 1011.7
20260505020900 63 238 0.0 0.0 0.00 0.00 0.00 71 1011.6
20260505020400 63 238 0.0 2.0 0.00 0.00 0.00 71 1011.7
20260505015900 63 238 0.0 2.0 0.00 0.00 0.00 70 1011.7
20260505015359 63 238 0.0 1.0 0.00 0.00 0.00 70 1011.7
20260505014857 63 238 0.0 2.0 0.00 0.00 0.00 69 1011.7
20260505014358 64 238 0.0 3.0 0.00 0.00 0.00 69 1011.7
20260505013858 64 237 0.0 3.0 0.00 0.00 0.00 68 1011.6
20260505013356 64 249 1.0 3.0 0.00 0.00 0.00 68 1011.5
20260505012855 64 237 1.0 3.0 0.00 0.00 0.00 67 1011.4
20260505012355 65 227 1.0 3.0 0.00 0.00 0.00 67 1011.3
20260505011855 65 232 1.0 2.0 0.00 0.00 0.00 67 1011.3
20260505011354 65 230 0.0 2.0 0.00 0.00 0.00 66 1011.2
20260505010852 65 219 0.0 2.0 0.00 0.00 0.00 65 1011.2
20260505010648 65 240 0.0 2.0 0.00 0.00 0.00 65 1011.0
20260505010130 66 234 0.0 2.0 0.00 0.00 0.00 64 1011.0
20260505005350 66 234 0.0 2.0 0.00 0.00 0.00 63 1010.9
20260505004833 67 231 1.0 3.0 0.00 0.00 0.00 62 1010.9
20260505004351 67 238 2.0 5.0 0.00 0.00 0.00 61 1010.9
20260505004052 68 253 2.0 6.0 0.00 0.00 0.00 60 1010.9
20260505003320 68 243 3.0 6.0 0.00 0.00 0.00 60 1010.9
20260505002820 68 223 3.0 10.0 0.00 0.00 0.00 59 1010.8
20260505002328 68 243 3.0 10.0 0.00 0.00 0.00 59 1010.7
20260505001823 69 213 4.0 10.0 0.00 0.00 0.00 58 1010.7
20260505000839 69 237 7.0 17.0 0.00 0.00 0.00 56 1010.9
20260505000337 70 249 7.0 17.0 0.00 0.00 0.00 54 1010.9
20260504235819 71 227 5.0 17.0 0.00 0.00 0.00 53 1010.9
20260504235332 72 188 3.0 14.0 0.00 0.00 0.00 51 1011.0
20260504234844 73 242 2.0 7.0 0.00 0.00 0.00 48 1010.7
20260504234324 73 288 1.0 6.0 0.00 0.00 0.00 48 1010.6
20260504233822 73 223 1.0 4.0 0.00 0.00 0.00 48 1010.5
20260504233318 73 236 2.0 4.0 0.00 0.00 0.00 47 1010.5
20260504232852 73 210 3.0 7.0 0.00 0.00 0.00 46 1010.4
20260504232308 73 249 4.0 9.0 0.00 0.00 0.00 46 1010.4
20260504231802 74 230 4.0 9.0 0.00 0.00 0.00 46 1010.3
20260504231301 74 244 4.0 8.0 0.00 0.00 0.00 45 1010.2
20260504230753 74 227 4.0 7.0 0.00 0.00 0.00 45 1010.1
20260504230244 74 240 4.0 12.0 0.00 0.00 0.00 45 1010.2
20260504230015 74 242 4.0 12.0 0.00 0.00 0.00 46 1010.1
20260504225229 74 224 3.0 7.0 0.00 0.00 0.00 44 1010.2
20260504224722 74 232 3.0 8.0 0.00 0.00 0.00 45 1010.2
20260504224219 74 224 5.0 11.0 0.00 0.00 0.00 45 1010.2
20260504223720 74 242 6.0 14.0 0.00 0.00 0.00 44 1010.3
20260504223219 74 236 5.0 14.0 0.00 0.00 0.00 44 1010.3
20260504222720 74 215 5.0 12.0 0.00 0.00 0.00 44 1010.2
20260504222219 75 211 5.0 12.0 0.00 0.00 0.00 44 1010.2
20260504221719 75 183 4.0 12.0 0.00 0.00 0.00 43 1010.2
20260504221221 75 245 5.0 12.0 0.00 0.00 0.00 44 1010.1
20260504220220 75 247 5.0 16.0 0.00 0.00 0.00 43 1010.0
20260504215720 75 286 7.0 19.0 0.00 0.00 0.00 45 1010.2
20260504215220 74 208 8.0 19.0 0.00 0.00 0.00 44 1010.1
20260504214719 74 239 7.0 16.0 0.00 0.00 0.00 45 1010.2
20260504214220 74 228 5.0 16.0 0.00 0.00 0.00 44 1010.3
20260504213719 74 264 6.0 16.0 0.00 0.00 0.00 45 1010.1
20260504213212 75 236 5.0 14.0 0.00 0.00 0.00 44 1010.2
20260504212707 75 247 5.0 16.0 0.00 0.00 0.00 44 1010.3
20260504212203 76 271 5.0 16.0 0.00 0.00 0.00 44 1010.2
20260504211703 76 252 5.0 15.0 0.00 0.00 0.00 43 1010.2
20260504211206 76 260 5.0 15.0 0.00 0.00 0.00 42 1010.2
20260504210934 76 234 4.0 12.0 0.00 0.00 0.00 42 1010.1
20260504210203 76 295 5.0 12.0 0.00 0.00 0.00 41 1010.0
20260504205703 76 139 5.0 12.0 0.00 0.00 0.00 41 1010.0
20260504205203 76 229 6.0 16.0 0.00 0.00 0.00 41 1010.0
20260504204703 76 224 6.0 16.0 0.00 0.00 0.00 42 1010.0
20260504204203 76 159 7.0 17.0 0.00 0.00 0.00 43 1010.1
20260504203703 75 144 8.0 17.0 0.00 0.00 0.00 44 1010.2
20260504203204 75 231 6.0 16.0 0.00 0.00 0.00 42 1010.3
20260504202705 75 213 7.0 17.0 0.00 0.00 0.00 43 1010.3
20260504202435 74 216 8.0 17.0 0.00 0.00 0.00 45 1010.5
20260504201658 74 199 7.0 15.0 0.00 0.00 0.00 42 1010.6
20260504201153 75 249 5.0 15.0 0.00 0.00 0.00 43 1010.5
20260504200654 76 240 5.0 16.0 0.00 0.00 0.00 42 1010.6
20260504200424 76 265 6.0 16.0 0.00 0.00 0.00 43 1010.6
20260504195654 75 211 6.0 16.0 0.00 0.00 0.00 42 1010.6
20260504195159 75 258 7.0 16.0 0.00 0.00 0.00 40 1010.7
20260504194658 75 249 7.0 14.0 0.00 0.00 0.00 41 1010.8
20260504194158 75 213 7.0 14.0 0.00 0.00 0.00 43 1010.8
20260504193653 74 227 6.0 14.0 0.00 0.00 0.00 42 1010.9
20260504193200 75 252 4.0 14.0 0.00 0.00 0.00 40 1010.9
20260504192653 75 285 4.0 12.0 0.00 0.00 0.00 42 1010.9
20260504192153 74 259 5.0 12.0 0.00 0.00 0.00 45 1011.0
20260504191653 74 276 5.0 14.0 0.00 0.00 0.00 43 1011.1
20260504191153 74 259 6.0 15.0 0.00 0.00 0.00 42 1011.1
20260504190917 74 234 7.0 15.0 0.00 0.00 0.00 42 1011.3
20260504190137 76 233 5.0 16.0 0.00 0.00 0.00 40 1011.3
20260504185630 76 211 5.0 16.0 0.00 0.00 0.00 43 1011.2
20260504185129 75 193 5.0 14.0 0.00 0.00 0.00 41 1011.2
20260504184629 75 178 5.0 14.0 0.00 0.00 0.00 41 1011.3
20260504184400 75 207 7.0 16.0 0.00 0.00 0.00 41 1011.3
20260504183630 75 231 8.0 17.0 0.00 0.00 0.00 40 1011.5
20260504183129 75 277 6.0 17.0 0.00 0.00 0.00 41 1011.5
20260504182629 75 194 5.0 13.0 0.00 0.00 0.00 39 1011.4
20260504182127 75 223 5.0 15.0 0.00 0.00 0.00 39 1011.5
20260504181625 75 272 5.0 15.0 0.00 0.00 0.00 38 1011.6
20260504181124 75 245 5.0 16.0 0.00 0.00 0.00 40 1011.8
20260504180854 75 290 6.0 16.0 0.00 0.00 0.00 40 1011.8
20260504180124 75 202 6.0 17.0 0.00 0.00 0.00 40 1012.0
20260504175623 75 228 4.0 17.0 0.00 0.00 0.00 40 1012.0
20260504175123 75 281 4.0 11.0 0.00 0.00 0.00 39 1012.1
20260504174615 74 304 6.0 14.0 0.00 0.00 0.00 42 1012.2
20260504174115 74 227 6.0 17.0 0.00 0.00 0.00 39 1012.3
20260504173615 74 227 5.0 17.0 0.00 0.00 0.00 39 1012.3
20260504173115 74 199 5.0 15.0 0.00 0.00 0.00 38 1012.3
20260504172615 74 142 5.0 15.0 0.00 0.00 0.00 39 1012.4
20260504172346 74 238 5.0 16.0 0.00 0.00 0.00 40 1012.5
20260504171615 74 229 5.0 16.0 0.00 0.00 0.00 42 1012.7
20260504171116 73 218 5.0 14.0 0.00 0.00 0.00 44 1012.8
20260504170846 73 236 4.0 13.0 0.00 0.00 0.00 39 1012.8
20260504170346 73 257 4.0 12.0 0.00 0.00 0.00 42 1012.8
20260504160337 69 221 5.0 15.0 0.00 0.00 0.00 43 1013.7
20260504150606 68 300 4.0 11.0 0.00 0.00 0.00 45 1014.2
20260504150105 68 218 3.0 11.0 0.00 0.00 0.00 46 1014.2
20260504141053 64 223 4.0 14.0 0.00 0.00 0.00 50 1014.2
20260504140552 64 204 3.0 13.0 0.00 0.00 0.00 49 1014.3
20260504140323 64 223 4.0 11.0 0.00 0.00 0.00 56 1014.3
20260504130446 57 190 1.0 5.0 0.00 0.00 0.00 66 1015.0
20260504110304 42 190 0.0 0.0 0.00 0.00 0.00 93 1015.5
20260504100130 43 190 0.0 0.0 0.00 0.00 0.00 89 1015.2
20260504081348 45 190 0.0 1.0 0.00 0.00 0.00 87 1015.4
20260504081113 45 190 0.0 0.0 0.00 0.00 0.00 87 1015.5
20260504080332 45 190 0.0 0.0 0.00 0.00 0.00 87 1015.4
20260504050406 44 209 0.0 2.0 0.00 0.00 0.00 84 1015.9
20260504045906 44 209 0.0 1.0 0.00 0.00 0.00 84 1015.8
20260504045404 44 209 0.0 1.0 0.00 0.00 0.00 83 1015.8
20260504044904 44 209 0.0 0.0 0.00 0.00 0.00 81 1015.6
20260504044404 44 209 0.0 0.0 0.00 0.00 0.00 81 1015.7
20260504043905 44 209 0.0 0.0 0.00 0.00 0.00 81 1015.6
20260504043404 44 209 0.0 0.0 0.00 0.00 0.00 81 1015.5
20260504043137 44 209 0.0 0.0 0.00 0.00 0.00 80 1015.6
20260504042636 44 209 0.0 0.0 0.00 0.00 0.00 80 1015.5
20260504041904 44 209 0.0 0.0 0.00 0.00 0.00 81 1015.5
20260504041405 44 209 0.0 0.0 0.00 0.00 0.00 82 1015.5
20260504041133 44 209 0.0 0.0 0.00 0.00 0.00 81 1015.5
20260504040402 44 209 0.0 0.0 0.00 0.00 0.00 80 1015.4
20260504035852 44 209 0.0 0.0 0.00 0.00 0.00 80 1015.3